Temp
-12 -12 -12 -12 -12 -12 -12 -11 -11 -11 -11 -11 -11 -11 -11 -11 -11 -12 -12 -13 -14 -15 -16 -16 -17 -17 -17 -17 -17 -17 -17 -17 -17 -17 -16 -16 -16 -15 -15 -14 -14 -14 -13 -13 -13
-12 -12 -12 -12 -12 -12 -12 -11 -11 -11 -12 -11 -12 -11 -11 -11 -11 -12 -12 -13 -14 -15 -16 -16 -17 -17 -17 -17 -17 -18 -17 -17 -17 -17 -16 -15 -15 -15 -14 -14 -14 -13 -13 -13 -13
-12 -12 -12 -12 -12 -12 -11 -12 -12 -11 -12 -12 -12 -12 -11 -11 -11 -12 -13 -13 -14 -15 -15 -16 -16 -16 -16 -17 -18 -18 -17 -17 -17 -17 -16 -15 -15 -14 -14 -14 -13 -13 -13 -13 -13
-12 -12 -12 -12 -12 -12 -12 -12 -12 -12 -12 -12 -12 -12 -11 -11 -12 -12 -13 -14 -14 -15 -15 -16 -17 -17 -17 -17 -17 -18 -18 -17 -16 -16 -16 -15 -15 -14 -14 -14 -14 -13 -14 -13 -12
-13 -13 -12 -12 -12 -12 -12 -12 -12 -12 -12 -12 -12 -12 -11 -12 -12 -12 -13 -14 -14 -15 -14 -16 -17 -17 -17 -18 -18 -17 -17 -17 -16 -16 -16 -15 -15 -15 -15 -15 -14 -14 -14 -13 -13
-12 -12 -12 -12 -12 -12 -12 -12 -12 -12 -12 -12 -12 -12 -11 -12 -12 -12 -13 -14 -14 -14 -15 -16 -17 -18 -18 -18 -18 -17 -17 -17 -16 -15 -15 -15 -15 -14 -15 -15 -14 -14 -14 -14 -13
-13 -13 -13 -12 -12 -13 -12 -12 -12 -12 -12 -12 -12 -12 -12 -12 -12 -13 -13 -14 -14 -14 -15 -17 -17 -18 -18 -18 -18 -17 -17 -16 -16 -15 -15 -15 -14 -15 -15 -15 -15 -15 -15 -15 -15
-13 -13 -13 -13 -13 -13 -13 -12 -12 -12 -12 -12 -13 -12 -13 -12 -12 -13 -13 -14 -14 -15 -16 -17 -17 -18 -18 -18 -18 -17 -16 -16 -16 -16 -15 -15 -16 -16 -15 -15 -14 -15 -15 -15 -15
-13 -13 -13 -13 -13 -13 -13 -13 -12 -12 -12 -13 -13 -13 -12 -12 -13 -13 -13 -14 -15 -15 -16 -17 -17 -17 -18 -18 -18 -17 -17 -16 -16 -15 -15 -15 -16 -15 -15 -15 -15 -15 -15 -15 -15
-13 -13 -13 -13 -13 -13 -13 -13 -13 -12 -13 -13 -13 -13 -12 -12 -13 -13 -13 -14 -14 -15 -16 -17 -17 -17 -17 -18 -18 -17 -17 -16 -15 -15 -16 -15 -16 -15 -15 -16 -15 -15 -15 -15 -15
-14 -14 -14 -13 -13 -13 -13 -13 -13 -13 -13 -13 -13 -13 -13 -12 -13 -13 -13 -14 -14 -15 -15 -16 -16 -17 -17 -18 -18 -17 -17 -16 -15 -15 -16 -16 -16 -15 -15 -16 -16 -16 -15 -15 -15
-14 -14 -14 -13 -13 -13 -13 -13 -13 -13 -13 -13 -13 -13 -13 -13 -13 -13 -13 -14 -14 -15 -16 -16 -17 -17 -17 -18 -17 -17 -17 -16 -16 -16 -16 -16 -15 -15 -16 -15 -16 -16 -16 -15 -15
-14 -14 -14 -14 -13 -13 -13 -13 -13 -13 -13 -13 -13 -13 -12 -13 -13 -13 -14 -14 -14 -15 -16 -16 -17 -17 -17 -17 -17 -17 -16 -16 -15 -15 -15 -15 -16 -16 -16 -16 -16 -16 -16 -16 -15
-15 -15 -14 -14 -14 -13 -13 -14 -13 -13 -13 -13 -13 -14 -13 -13 -13 -13 -14 -14 -14 -15 -15 -16 -16 -16 -16 -16 -17 -16 -16 -16 -16 -16 -16 -17 -16 -16 -16 -16 -15 -15 -16 -16 -16
-16 -16 -15 -14 -14 -14 -14 -14 -14 -13 -13 -13 -14 -14 -13 -13 -13 -13 -14 -14 -14 -15 -15 -16 -15 -16 -16 -16 -16 -17 -16 -16 -16 -16 -16 -16 -16 -16 -15 -15 -15 -15 -16 -15 -16
-16 -17 -16 -15 -15 -16 -14 -15 -14 -14 -13 -13 -14 -14 -13 -13 -13 -13 -14 -14 -14 -15 -15 -15 -15 -15 -16 -16 -15 -16 -16 -16 -16 -15 -15 -15 -15 -15 -15 -15 -15 -15 -15 -15 -15
-17 -18 -17 -17 -18 -17 -15 -15 -14 -13 -14 -14 -14 -14 -13 -13 -13 -13 -14 -14 -14 -15 -15 -16 -16 -15 -16 -16 -15 -16 -16 -16 -16 -15 -15 -15 -15 -14 -15 -15 -15 -15 -15 -15 -15
-18 -18 -18 -18 -20 -19 -18 -17 -13 -12 -13 -15 -14 -14 -13 -14 -13 -14 -14 -14 -14 -15 -16 -16 -16 -15 -16 -16 -16 -16 -16 -15 -16 -15 -16 -16 -15 -15 -16 -16 -16 -15 -15 -15 -15
-19 -18 -18 -19 -20 -20 -19 -16 -12 -12 -13 -15 -15 -14 -14 -14 -13 -14 -14 -14 -14 -15 -16 -16 -16 -16 -16 -16 -17 -16 -16 -16 -16 -16 -16 -16 -15 -15 -16 -16 -16 -16 -15 -15 -15
-19 -18 -18 -20 -20 -21 -19 -14 -13 -15 -15 -15 -16 -15 -14 -14 -14 -14 -14 -14 -15 -15 -16 -16 -17 -17 -17 -17 -16 -16 -16 -16 -16 -16 -16 -16 -16 -16 -16 -16 -16 -16 -15 -15 -15
-19 -19 -18 -20 -21 -21 -15 -13 -14 -16 -16 -16 -16 -15 -15 -15 -14 -14 -14 -14 -15 -15 -16 -16 -17 -17 -17 -17 -17 -17 -16 -16 -16 -16 -16 -15 -15 -16 -16 -16 -16 -16 -16 -16 -16
-20 -19 -19 -20 -20 -17 -15 -14 -15 -17 -17 -16 -16 -15 -16 -15 -14 -14 -14 -15 -15 -15 -15 -16 -17 -17 -17 -17 -17 -17 -17 -16 -16 -16 -16 -16 -15 -16 -16 -16 -16 -16 -16 -16 -16
-20 -19 -20 -21 -20 -16 -15 -15 -15 -18 -18 -18 -17 -16 -16 -16 -15 -15 -15 -16 -16 -16 -16 -17 -17 -17 -17 -17 -16 -16 -17 -17 -16 -16 -15 -16 -15 -16 -16 -16 -16 -16 -16 -15 -16
-20 -20 -20 -20 -18 -17 -16 -15 -15 -18 -18 -17 -17 -16 -16 -16 -15 -15 -15 -16 -16 -17 -17 -17 -17 -17 -16 -16 -17 -17 -17 -17 -16 -16 -16 -16 -16 -16 -16 -16 -16 -16 -16 -16 -16
-22 -20 -19 -18 -18 -15 -16 -15 -17 -17 -17 -17 -17 -17 -16 -16 -16 -16 -16 -16 -16 -17 -17 -17 -17 -17 -17 -17 -17 -17 -16 -16 -16 -16 -16 -16 -16 -16 -16 -17 -17 -17 -16 -16 -16
-22 -20 -19 -18 -18 -17 -16 -14 -15 -18 -18 -17 -16 -17 -17 -17 -16 -17 -17 -17 -16 -17 -17 -17 -17 -17 -18 -18 -17 -17 -16 -16 -16 -16 -16 -16 -15 -16 -16 -17 -17 -17 -16 -16 -16
-22 -20 -19 -18 -18 -18 -15 -15 -15 -18 -17 -17 -18 -18 -18 -17 -17 -17 -17 -17 -16 -17 -17 -17 -17 -17 -17 -17 -17 -16 -16 -16 -16 -16 -16 -15 -16 -16 -16 -17 -17 -17 -17 -17 -16
Height
5815 5817 5818 5819 5819 5819 5818 5817 5816 5814 5813 5811 5808 5805 5802 5798 5793 5788 5783 5777 5771 5765 5760 5755 5751 5748 5748 5748 5748 5750 5753 5756 5759 5761 5763 5764 5765 5768 5770 5774 5777 5777 5779 5777 5779
5808 5809 5810 5811 5812 5813 5812 5812 5811 5810 5808 5807 5804 5802 5798 5795 5790 5785 5780 5774 5769 5763 5758 5754 5750 5748 5747 5747 5748 5751 5754 5757 5760 5762 5765 5764 5765 5768 5770 5771 5773 5774 5773 5774 5775
5800 5802 5803 5803 5806 5806 5806 5806 5806 5805 5804 5802 5800 5798 5795 5791 5788 5782 5777 5772 5768 5762 5758 5754 5750 5748 5747 5748 5749 5752 5754 5757 5760 5763 5765 5764 5766 5767 5768 5769 5770 5770 5770 5771 5771
5792 5794 5796 5797 5799 5800 5800 5800 5801 5800 5800 5798 5796 5794 5791 5788 5785 5779 5774 5770 5766 5761 5757 5753 5751 5749 5749 5750 5752 5753 5755 5759 5761 5764 5763 5764 5765 5765 5766 5765 5766 5767 5768 5767 5767
5782 5785 5787 5789 5791 5793 5794 5794 5794 5794 5794 5793 5792 5790 5788 5785 5780 5776 5772 5768 5764 5760 5756 5752 5751 5750 5750 5752 5754 5755 5759 5759 5761 5764 5764 5765 5765 5765 5765 5764 5763 5766 5766 5766 5764
5773 5775 5777 5780 5783 5786 5787 5788 5788 5788 5789 5788 5787 5786 5784 5782 5777 5774 5769 5765 5761 5758 5754 5750 5750 5750 5751 5754 5755 5758 5760 5762 5764 5763 5764 5764 5765 5766 5767 5765 5764 5764 5764 5765 5765
5764 5766 5769 5771 5774 5777 5779 5780 5781 5781 5783 5783 5783 5782 5781 5777 5774 5771 5766 5763 5759 5756 5752 5749 5750 5750 5752 5754 5756 5759 5762 5763 5765 5766 5766 5766 5765 5766 5767 5766 5764 5765 5765 5765 5764
5753 5757 5759 5763 5765 5768 5770 5772 5774 5775 5777 5778 5778 5778 5777 5774 5771 5768 5764 5762 5758 5755 5752 5750 5751 5750 5751 5754 5756 5760 5762 5764 5766 5766 5766 5766 5766 5767 5767 5767 5764 5764 5767 5768 5769
5741 5745 5750 5753 5756 5759 5760 5763 5767 5767 5770 5772 5773 5773 5774 5770 5769 5766 5762 5759 5758 5755 5750 5749 5751 5751 5751 5754 5756 5759 5760 5763 5765 5766 5766 5767 5767 5767 5767 5766 5766 5765 5767 5769 5770
5728 5734 5739 5743 5747 5749 5752 5754 5758 5761 5763 5765 5768 5770 5770 5767 5765 5763 5760 5757 5756 5754 5750 5750 5750 5750 5751 5753 5756 5757 5761 5762 5763 5764 5765 5765 5766 5767 5767 5768 5767 5767 5769 5769 5770
5716 5721 5726 5731 5737 5740 5744 5746 5751 5754 5757 5758 5761 5763 5764 5762 5761 5760 5758 5756 5754 5753 5749 5750 5751 5749 5751 5752 5754 5756 5758 5761 5761 5763 5764 5766 5767 5768 5767 5769 5769 5769 5770 5771 5771
5703 5709 5714 5719 5725 5730 5734 5737 5742 5744 5748 5750 5754 5757 5758 5758 5757 5757 5756 5754 5753 5752 5749 5749 5749 5749 5752 5752 5754 5756 5758 5760 5760 5760 5762 5764 5767 5767 5767 5768 5769 5769 5770 5771 5772
5690 5696 5702 5706 5714 5720 5724 5727 5732 5734 5736 5742 5746 5751 5751 5753 5752 5753 5753 5751 5751 5751 5748 5748 5747 5748 5753 5753 5754 5756 5758 5759 5760 5760 5762 5763 5765 5766 5768 5769 5770 5770 5771 5771 5772
5678 5684 5689 5696 5705 5709 5712 5718 5720 5723 5725 5737 5736 5743 5745 5747 5748 5747 5749 5749 5748 5749 5748 5748 5747 5749 5750 5754 5754 5755 5756 5757 5758 5760 5760 5762 5764 5764 5766 5768 5769 5770 5770 5771 5771
5665 5670 5678 5684 5695 5697 5704 5705 5709 5714 5720 5728 5729 5733 5739 5743 5743 5743 5744 5744 5745 5745 5746 5746 5746 5746 5748 5751 5753 5754 5755 5756 5758 5759 5760 5761 5762 5763 5764 5766 5766 5767 5768 5769 5769
5650 5658 5663 5674 5680 5684 5692 5696 5700 5707 5708 5716 5719 5726 5733 5735 5736 5737 5740 5740 5740 5740 5742 5742 5744 5744 5745 5747 5751 5752 5754 5756 5757 5758 5759 5760 5761 5762 5763 5764 5764 5764 5765 5765 5766
5635 5644 5654 5662 5670 5670 5678 5686 5692 5697 5705 5710 5714 5720 5725 5728 5728 5731 5734 5735 5735 5736 5738 5739 5741 5741 5743 5744 5747 5751 5753 5754 5756 5755 5756 5757 5757 5759 5761 5762 5761 5761 5762 5764 5764
5619 5628 5642 5651 5656 5659 5665 5672 5680 5691 5697 5701 5708 5712 5716 5719 5722 5724 5727 5729 5730 5731 5733 5735 5738 5739 5740 5743 5745 5748 5750 5751 5751 5752 5753 5753 5753 5756 5757 5756 5758 5759 5758 5758 5759
5601 5611 5626 5640 5644 5648 5654 5659 5672 5680 5687 5693 5698 5705 5709 5712 5717 5718 5722 5724 5726 5727 5729 5731 5735 5736 5738 5740 5743 5745 5747 5749 5750 5750 5750 5751 5752 5752 5753 5753 5752 5753 5754 5753 5754
5583 5596 5613 5625 5632 5635 5641 5652 5661 5671 5677 5682 5690 5697 5703 5708 5711 5713 5716 5720 5721 5723 5724 5727 5731 5733 5735 5738 5740 5742 5745 5746 5747 5746 5746 5746 5747 5748 5749 5750 5749 5749 5750 5751 5750
5563 5577 5599 5607 5616 5620 5630 5643 5651 5662 5667 5674 5682 5689 5696 5700 5705 5708 5711 5713 5714 5718 5719 5721 5725 5730 5731 5734 5737 5738 5740 5742 5742 5741 5740 5741 5743 5744 5744 5744 5745 5745 5746 5747 5747
5545 5562 5581 5587 5597 5611 5621 5635 5643 5653 5657 5667 5675 5682 5690 5696 5699 5702 5707 5708 5710 5713 5715 5717 5719 5723 5727 5730 5731 5734 5734 5736 5736 5738 5736 5734 5738 5739 5740 5739 5740 5740 5741 5742 5742
5528 5548 5557 5569 5580 5606 5614 5623 5632 5643 5648 5658 5667 5673 5680 5687 5691 5696 5701 5703 5705 5708 5710 5713 5714 5718 5722 5725 5727 5728 5731 5732 5731 5729 5730 5730 5734 5735 5735 5734 5734 5734 5735 5736 5738
5508 5520 5534 5557 5583 5592 5604 5615 5624 5635 5642 5650 5659 5665 5673 5681 5685 5691 5696 5697 5701 5704 5706 5707 5710 5713 5717 5722 5724 5725 5727 5726 5725 5723 5726 5726 5728 5730 5728 5727 5728 5728 5729 5730 5732
5483 5501 5530 5544 5567 5585 5594 5605 5615 5626 5633 5643 5653 5658 5666 5675 5679 5685 5690 5694 5697 5700 5701 5703 5705 5708 5712 5715 5716 5717 5719 5720 5719 5720 5719 5723 5721 5724 5723 5722 5722 5723 5724 5725 5726
5471 5496 5519 5545 5565 5569 5579 5592 5606 5619 5626 5635 5646 5655 5660 5667 5675 5680 5685 5689 5693 5695 5696 5698 5701 5704 5706 5708 5711 5712 5713 5713 5714 5715 5716 5716 5716 5717 5717 5717 5717 5717 5718 5719 5718
5464 5490 5511 5533 5545 5558 5574 5587 5599 5611 5618 5628 5643 5650 5652 5664 5671 5674 5676 5680 5684 5688 5692 5694 5697 5700 5700 5702 5704 5705 5708 5708 5708 5709 5709 5708 5711 5709 5710 5710 5711 5711 5711 5711 5711
Wind_Speed
44 41 39 39 38 37 36 35 34 33 32 31 29 30 31 34 36 39 43 41 31 31 23 25 17 11 9 10 4 7 13 14 16 13 15 18 14 21 24 22 17 24 25 32 32
43 42 41 40 38 38 38 36 35 34 33 32 29 30 29 33 36 37 41 37 32 25 20 22 17 11 8 2 9 13 11 9 8 8 1 5 7 8 16 22 21 20 24 23 23
45 44 43 40 39 38 38 39 36 36 34 31 28 28 28 32 35 37 38 34 28 23 23 19 19 13 5 6 22 14 13 8 6 7 9 1 2 10 13 21 18 14 15 14 17
47 45 43 42 47 41 40 41 37 36 35 32 28 27 27 32 35 36 37 30 24 23 24 17 16 14 3 11 21 16 14 9 6 5 14 2 5 9 12 17 12 8 10 11 12
48 48 45 44 44 43 43 44 36 35 35 32 28 26 26 31 34 34 36 27 22 22 21 11 11 9 4 8 18 12 10 6 6 6 10 5 5 6 6 4 2 4 6 6 7
51 49 47 46 44 41 43 40 38 35 35 32 28 26 26 30 32 33 35 25 21 22 20 9 5 3 2 6 12 16 9 7 3 5 3 4 3 4 2 5 2 4 2 0 2
53 51 49 47 46 42 42 39 38 37 35 32 28 26 27 30 30 31 32 23 22 22 16 5 4 2 3 9 7 14 4 6 5 3 5 3 3 4 3 5 4 11 11 12 14
56 53 50 50 47 47 46 43 39 38 35 32 29 24 25 29 29 28 28 19 21 17 8 5 5 4 3 10 8 10 12 9 3 7 5 2 7 7 3 3 6 11 10 11 12
59 55 52 50 50 49 48 44 41 38 35 32 29 24 27 27 27 25 25 17 18 10 7 3 3 3 7 7 7 12 14 10 11 4 2 4 6 8 6 2 4 9 9 8 9
60 59 56 51 46 45 47 47 41 40 36 32 29 29 26 25 26 22 21 15 15 10 4 2 4 3 8 9 11 12 18 10 13 15 7 7 5 6 7 7 5 5 7 8 8
62 59 56 55 51 50 44 41 43 44 38 33 31 30 27 26 25 20 19 14 14 7 5 1 5 3 10 13 12 14 17 19 15 14 17 15 11 6 8 11 4 1 5 8 9
62 60 60 57 51 53 48 48 42 43 39 36 35 32 29 25 23 19 17 13 12 9 1 3 4 7 11 12 14 15 14 15 15 11 17 15 11 9 8 8 4 4 10 6 7
64 60 58 56 55 51 47 49 46 49 45 38 34 33 31 26 23 19 19 14 14 12 7 8 10 10 11 11 11 11 17 18 17 12 12 7 4 5 6 10 7 5 2 5 6
64 62 60 57 53 51 46 46 49 54 47 40 41 37 32 27 22 22 21 16 16 14 10 9 9 11 11 11 12 19 22 20 16 12 8 7 7 6 8 10 10 11 9 9 10
59 62 61 58 55 50 49 45 47 52 45 39 44 40 32 26 22 20 22 16 15 15 13 14 13 15 13 12 15 17 17 19 17 15 14 12 10 6 9 9 12 11 9 16 16
60 61 60 60 56 50 51 43 44 48 44 35 36 38 30 26 25 25 21 16 18 21 17 18 17 14 13 14 17 24 20 17 16 14 17 12 7 6 6 8 6 12 15 14 18
63 61 59 54 44 50 51 44 45 43 37 34 30 33 30 26 25 24 21 16 19 21 18 21 18 16 21 21 19 23 20 19 19 21 20 16 17 11 10 11 10 11 12 13 16
67 64 59 52 47 49 44 43 48 43 43 32 36 30 33 28 26 27 22 16 19 22 20 24 17 16 21 27 25 22 21 22 23 22 22 22 23 16 14 17 16 12 14 13 11
71 67 64 55 54 50 50 50 48 41 41 45 39 39 36 30 27 26 22 17 19 20 21 25 20 19 20 25 28 24 25 21 19 20 21 23 23 21 15 14 15 17 15 15 15
75 72 66 58 57 56 55 53 45 36 36 48 39 36 34 25 28 27 23 17 16 19 22 25 26 24 22 27 29 28 25 21 20 24 24 24 23 17 16 17 12 15 21 20 18
79 77 68 62 62 63 52 51 45 36 36 48 42 40 34 30 29 28 21 18 17 20 24 28 30 27 25 25 25 28 28 24 22 24 26 25 21 20 19 21 19 18 19 19 18
82 79 73 69 69 65 51 48 47 38 42 46 42 38 33 30 29 27 19 18 18 18 24 23 33 31 28 27 29 26 28 24 25 26 26 28 18 14 15 18 20 19 20 22 22
85 80 80 75 72 61 53 52 51 44 45 44 43 42 37 33 32 27 20 18 19 21 23 22 29 35 30 30 30 30 29 22 29 27 26 27 18 16 19 20 22 24 23 20 20
88 87 86 78 68 66 59 52 51 48 48 48 45 44 40 34 32 27 22 23 21 24 23 26 27 29 31 25 28 29 27 28 32 30 23 20 20 19 21 23 25 26 23 22 17
90 90 82 80 73 62 61 57 53 49 52 51 47 44 41 36 33 29 25 21 22 28 27 27 27 25 24 21 28 29 28 30 32 30 27 19 25 21 22 21 24 25 23 21 20
91 88 84 74 71 72 66 57 53 49 52 53 53 41 41 38 33 30 24 22 24 28 28 28 26 25 23 23 28 30 29 26 26 28 27 26 25 22 21 21 22 23 24 23 24
89 86 84 76 75 75 60 58 53 50 51 54 45 39 47 37 34 33 31 31 26 31 28 27 29 30 25 24 26 30 24 24 26 27 28 29 25 27 27 26 26 26 28 27 26
Wind_Direction
271 274 276 277 279 281 283 287 291 293 294 295 300 308 308 314 319 321 327 328 333 334 326 329 334 327 324 317 308 158 157 179 183 200 223 232 249 239 234 223 241 244 249 243 251
269 270 273 275 278 281 283 285 289 291 293 294 298 305 306 312 316 322 326 328 331 338 328 329 346 322 313 336 144 148 167 158 182 205 205 7 253 247 253 226 244 248 257 248 244
268 268 270 273 279 282 284 283 286 288 291 292 294 302 303 310 313 321 326 327 331 336 332 327 343 347 348 150 154 160 157 148 194 205 210 124 204 225 244 229 231 230 231 258 262
266 268 270 273 273 275 278 282 286 285 287 289 289 297 301 305 311 318 325 323 327 328 336 334 345 356 315 166 173 173 163 144 173 184 214 105 55 30 289 262 193 238 251 254 265
265 266 266 268 277 271 272 282 282 282 284 286 284 292 298 302 310 317 324 321 328 325 327 326 335 6 303 182 187 200 163 154 178 176 226 276 310 322 329 29 217 231 256 264 262
264 265 264 266 266 270 274 279 281 278 281 283 278 286 292 300 308 317 324 321 324 327 322 295 294 344 294 195 204 205 214 191 108 156 193 203 119 93 71 54 10 81 36 316 29
261 263 266 266 267 264 270 276 279 276 277 279 274 281 286 296 306 314 323 321 323 329 324 240 240 229 255 206 201 204 196 205 154 203 236 203 135 172 144 95 82 83 77 58 64
261 261 261 264 265 265 265 266 268 273 274 275 270 276 279 291 303 314 319 320 327 331 337 296 263 210 202 207 209 193 176 184 116 218 304 12 133 159 116 123 110 99 113 104 112
262 261 262 264 267 267 266 264 259 268 268 270 265 263 273 287 298 312 314 317 328 326 347 293 285 253 169 214 211 203 199 207 217 232 264 292 171 142 112 168 134 111 109 117 120
259 263 263 261 266 269 273 265 258 263 264 264 260 266 268 281 292 307 306 308 328 335 351 265 242 262 187 202 206 214 213 224 232 234 237 216 151 157 114 117 102 101 114 114 117
256 258 262 262 263 266 265 267 260 257 262 256 249 256 260 272 286 301 300 296 323 331 72 245 240 221 186 192 210 212 219 238 268 263 232 251 190 151 100 123 100 26 143 140 130
253 255 258 261 261 262 259 262 258 253 253 251 251 251 255 265 277 293 283 285 305 294 281 211 200 200 216 205 212 217 223 237 259 216 190 187 180 152 122 132 111 357 191 160 157
251 252 254 256 260 260 261 262 261 249 250 243 246 240 247 257 270 280 271 288 286 285 249 236 193 203 238 211 228 216 200 204 214 181 191 216 211 171 168 150 147 141 116 186 175
252 251 251 253 254 257 259 263 261 253 243 238 244 231 240 250 261 267 266 277 284 278 261 228 208 207 214 245 221 205 196 206 213 199 208 243 252 176 179 193 189 178 172 199 198
246 248 246 248 250 252 255 257 253 254 241 242 243 230 234 246 245 262 259 270 279 263 249 228 206 208 218 212 230 200 206 213 219 226 230 234 249 232 189 193 199 216 219 209 212
237 241 244 242 241 245 246 248 252 242 237 236 237 224 230 237 248 253 261 259 266 261 243 232 231 218 192 196 212 219 213 225 230 242 259 261 255 212 224 224 225 235 219 214 216
234 236 239 240 235 237 237 235 240 247 235 230 223 218 225 228 238 247 258 259 272 269 247 234 239 226 196 184 205 208 223 225 234 241 250 258 266 242 255 261 262 246 239 227 233
231 232 233 237 227 231 231 228 231 244 237 223 214 211 216 222 230 243 249 258 270 263 230 227 226 217 201 208 204 202 222 226 231 235 246 252 260 276 281 276 254 266 247 247 253
229 228 229 228 232 225 226 230 231 226 232 214 213 214 220 223 231 242 248 256 263 253 235 226 218 206 199 195 198 207 228 244 257 257 259 263 273 282 278 233 264 243 248 265 279
226 228 224 222 225 223 228 228 226 220 224 207 206 210 220 219 232 245 252 261 264 249 229 221 221 213 206 204 213 224 233 241 259 273 274 276 282 280 261 265 280 247 246 256 268
222 224 221 219 220 229 226 228 218 210 211 202 203 213 222 222 231 240 249 258 246 235 229 217 219 216 217 221 222 226 236 234 255 262 272 278 283 281 270 254 261 254 259 253 241
219 221 219 217 218 224 220 226 215 206 202 199 202 216 219 224 233 239 242 247 248 242 237 220 221 218 223 227 227 232 234 239 249 275 282 274 287 282 265 261 255 255 248 238 239
216 217 219 216 216 219 218 218 215 203 202 197 206 216 215 218 228 236 235 229 225 235 235 225 222 224 225 230 233 235 243 267 267 273 269 271 290 287 276 270 275 267 259 254 254
212 214 215 215 213 216 218 216 215 203 205 200 206 219 218 215 223 231 231 228 229 234 231 228 227 230 235 247 249 244 255 256 261 262 268 271 285 275 274 269 266 273 270 266 264
210 213 216 214 210 211 215 215 216 206 207 205 207 217 223 216 223 230 230 232 235 232 227 232 238 237 240 235 229 234 245 255 262 266 264 274 271 266 274 281 269 272 272 269 268
209 210 212 212 213 215 211 214 212 206 206 205 206 213 222 220 222 225 225 232 240 231 231 234 240 238 244 245 242 254 253 252 258 267 270 269 268 281 280 277 281 271 266 259 260
206 208 209 210 209 212 212 215 214 209 205 206 211 210 225 222 228 225 224 231 227 230 235 239 241 240 248 252 249 253 261 268 268 268 270 269 276 278 282 281 276 270 267 267 268